Location: Krakow
(50.0830°N, 19.9170°E)
Time: 04:40:19
(UTC+01:00)

SR - Pass Details

Date: 13 February 2023
Orbit: 582 x 867 km, 66.7° (Epoch: 20 March)

Event Time Altitude Azimuth Distance (km) Brightness Sun altitude
Rises 10:38:49 0° 170° (S) 3,185 ? 24.4°
Reaches altitude 10° 10:41:56 10° 152° (SSE) 2,207 ? 24.6°
Maximum altitude 10:45:14 18° 110° (ESE) 1,678 ? 24.7°
Drops below altitude 10° 10:48:24 10° 68° (ENE) 2,096 ? 24.9°
Sets 10:51:15 0° 49° (NE) 2,961 ? 25.0°
